Regional Weather Roundup
Issued by NWS Cleveland, OH

Home | Current Version | Previous Version | Text Only | Print | Product List | Glossary On
Versions: 1 2 3 4 5 6 7 8 9 10 11 12 13 14 15 16 17 18 19 20 21 22 23 24 25 26 27 28 29 30 31 32 33 34 35 36 37 38 39 40 41 42 43 44 45 46 47 48 49 50
000
ASUS41 KCLE 291910
RWRCLE
OHIO REGIONAL WEATHER ROUNDUP
NATIONAL WEATHER SERVICE CLEVELAND, OH
200 PM EST THU JAN 29 2015

NOTE: "FAIR" INDICATES FEW OR NO CLOUDS BELOW 12,000 FEET WITH NO
SIGNIFICANT WEATHER AND/OR OBSTRUCTIONS TO VISIBILITY.

OHZ001>008-015>018-024>027-034-035-043-044-292000-
   NORTHWEST OHIO

CITY           SKY/WX    TMP DP  RH WIND       PRES   REMARKS
DEFIANCE       CLOUDY    38  33  82 W8        29.75R
FINDLAY        CLOUDY    40  33  76 SW14      29.72S
TOLEDO EXPRESS LGT RAIN  34  33  96 W13       29.73R FOG     WCI  25
TOLEDO EXEC    RAIN      36  32  85 SW13      29.73R FOG
LIMA           FOG       38  35  89 W17       29.74R VSB 1
$$

OHZ009>014-019>023-028>033-038-089-292000-
   NORTHEAST OHIO

CITY           SKY/WX    TMP DP  RH WIND       PRES   REMARKS
CLE-HOPKINS    FLURRIES  36  30  79 S12       29.75F
CLE-LAKEFRONT  LGT RAIN  36  31  82 S17G24    29.73F
CUY CO. ARPT   LGT SNOW  36  28  75 S14G23    29.73F
LORAIN-ELYRIA  CLOUDY    36  32  85 S10       29.72F
ASHTABULA      LGT SNOW  32  29  88 S13       29.74F FOG     WCI  22
AKRON-CANTON   CLOUDY    36  30  79 SW16      29.75F
WOOSTER        CLOUDY    35  30  82 SW14      29.75F WCI  26
MANSFIELD      CLOUDY    38  32  79 S17G25    29.72F
YOUNGSTOWN     CLOUDY    33  31  92 S10       29.76F WCI  25
$$

OHZ042-051>053-060>062-070>072-077>081-292000-
  SOUTHWEST OHIO

CITY           SKY/WX    TMP DP  RH WIND       PRES   REMARKS
CINC-COVINGTON CLOUDY    46  36  68 W21G32    29.85R
CINC-LUNKEN    CLOUDY    48  37  65 SW24G38   29.85R
HAMILTON       CLOUDY    46  37  71 W16G24    29.86R
DAYTON         CLOUDY    39  36  89 W24G39    29.81R FOG
WRIGHT-PAT AFB CLOUDY    44  36  74 W23G32    29.79R
DAYTON GENERAL CLOUDY    44  36  73 W20G37    29.80R
WILMINGTON     CLOUDY    46  36  68 SW18G29   29.78F
$$

OHZ036-037-039>041-045>050-054>059-063>069-073>076-082>088-292000-
  CENTRAL AND SOUTHEAST OHIO

CITY           SKY/WX    TMP DP  RH WIND       PRES   REMARKS
COLUMBUS       CLOUDY    39  32  76 S7        29.78F
OSU AIRPORT    CLOUDY    37  32  82 SE6       29.76F
BOLTON FIELD   CLOUDY    41  34  75 SW14      29.78F
RICKENBACK AFB CLOUDY    39  34  80 S7        29.78F
NEWARK         CLOUDY    40  32  73 S6        29.78F
MARION         CLOUDY    37  31  78 S17       29.73F
LANCASTER      CLOUDY    42  34  73 S5        29.79F
ZANESVILLE     CLOUDY    38  30  73 S13       29.80F
NEW PHILLY     CLOUDY    37  31  78 S6G16     29.80F
$$


USA.gov is the U.S. government's official web portal to all federal, state and local government web resources and services.